Location: Frankfurt+am+Main
(50.1100°N, 8.4815°E)
Time: 14:22:19
(UTC+02:00)

ISS - Pass Details

Date: 05 January 2018
Orbit: 402 x 408 km, 51.6° (Epoch: 16 July)

Event Time Altitude Azimuth Distance (km) Brightness Sun altitude
Exits shadow 06:19:04 66° 336° (NNW) 460 -3.8 -19.1°
Drops below altitude 10° 06:22:33 10° 79° (ENE) 1,503 0.0 -18.5°
Enters shadow 07:16:17 -73° 275° (W) 12,643 3.6 -10.4°
Maximum altitude 07:56:00 86° 14° (NNE) 426 -3.7 -4.7°
